TimeCDT,TemperatureF,Dew PointF,Humidity,Sea Level PressureIn,VisibilityMPH,Wind Direction,Wind SpeedMPH,Gust SpeedMPH,PrecipitationIn,Events,Conditions,WindDirDegrees,DateUTC
12:35 AM,-9999,-9999,N/A,30.03,0.8,Calm,Calm,-,N/A,,Mostly Cloudy,0,2013-09-27 05:35:00
12:55 AM,-9999,-9999,N/A,30.03,4.0,Calm,Calm,-,N/A,,Partly Cloudy,0,2013-09-27 05:55:00
1:15 AM,-9999,-9999,N/A,30.04,5.0,Calm,Calm,-,N/A,,Clear,0,2013-09-27 06:15:00
1:35 AM,-9999,-9999,N/A,30.04,5.0,Calm,Calm,-,N/A,,Clear,0,2013-09-27 06:35:00
1:55 AM,-9999,-9999,N/A,30.03,0.5,Calm,Calm,-,N/A,,Overcast,0,2013-09-27 06:55:00
2:15 AM,-9999,-9999,N/A,30.03,0.5,Calm,Calm,-,N/A,,Overcast,0,2013-09-27 07:15:00
2:35 AM,-9999,-9999,N/A,30.03,0.2,Calm,Calm,-,N/A,,Overcast,0,2013-09-27 07:35:00
2:55 AM,-9999,-9999,N/A,30.03,0.2,Calm,Calm,-,N/A,,Overcast,0,2013-09-27 07:55:00
3:15 AM,-9999,-9999,N/A,30.03,0.2,Calm,Calm,-,N/A,,Overcast,0,2013-09-27 08:15:00
3:35 AM,-9999,-9999,N/A,30.03,0.2,Calm,Calm,-,N/A,,Overcast,0,2013-09-27 08:35:00
3:55 AM,-9999,-9999,N/A,30.03,0.2,Calm,Calm,-,N/A,,Overcast,0,2013-09-27 08:55:00
4:15 AM,-9999,-9999,N/A,30.04,0.2,Calm,Calm,-,N/A,,Overcast,0,2013-09-27 09:15:00
4:35 AM,-9999,-9999,N/A,30.04,0.2,Calm,Calm,-,N/A,,Overcast,0,2013-09-27 09:35:00
4:55 AM,-9999,-9999,N/A,30.05,0.2,Calm,Calm,-,N/A,,Overcast,0,2013-09-27 09:55:00
5:15 AM,-9999,-9999,N/A,30.05,0.2,Calm,Calm,-,N/A,,Overcast,0,2013-09-27 10:15:00
5:35 AM,-9999,-9999,N/A,30.06,0.2,Calm,Calm,-,N/A,,Overcast,0,2013-09-27 10:35:00
5:55 AM,-9999,-9999,N/A,30.07,0.2,Calm,Calm,-,N/A,,Overcast,0,2013-09-27 10:55:00
6:15 AM,-9999,-9999,N/A,30.07,0.2,Calm,Calm,-,N/A,,Overcast,0,2013-09-27 11:15:00
6:35 AM,-9999,-9999,N/A,30.08,0.2,Calm,Calm,-,N/A,,Overcast,0,2013-09-27 11:35:00
6:55 AM,-9999,-9999,N/A,30.09,0.2,Calm,Calm,-,N/A,,Overcast,0,2013-09-27 11:55:00
7:15 AM,-9999,-9999,N/A,30.10,0.2,Calm,Calm,-,N/A,,Overcast,0,2013-09-27 12:15:00
7:35 AM,-9999,-9999,N/A,30.10,0.2,Calm,Calm,-,N/A,,Overcast,0,2013-09-27 12:35:00
7:55 AM,-9999,-9999,N/A,30.11,0.2,Calm,Calm,-,N/A,,Overcast,0,2013-09-27 12:55:00
8:15 AM,-9999,-9999,N/A,30.11,0.2,Calm,Calm,-,N/A,,Overcast,0,2013-09-27 13:15:00
8:35 AM,-9999,-9999,N/A,30.11,4.0,Calm,Calm,-,N/A,,Mostly Cloudy,0,2013-09-27 13:35:00
8:55 AM,-9999,-9999,N/A,30.11,9.0,Calm,Calm,-,N/A,,Partly Cloudy,0,2013-09-27 13:55:00
9:15 AM,-9999,-9999,N/A,30.12,10.0,Calm,Calm,-,N/A,,Clear,0,2013-09-27 14:15:00
9:35 AM,-9999,-9999,N/A,30.12,10.0,Calm,Calm,-,N/A,,Partly Cloudy,0,2013-09-27 14:35:00
9:55 AM,71.6,71.6,100,30.12,10.0,Calm,Calm,-,N/A,,Partly Cloudy,0,2013-09-27 14:55:00
10:15 AM,73.4,73.4,100,30.12,10.0,Calm,Calm,-,N/A,,Partly Cloudy,0,2013-09-27 15:15:00
10:35 AM,77.0,75.2,94,30.11,10.0,Calm,Calm,-,N/A,,Clear,0,2013-09-27 15:35:00
10:55 AM,78.8,73.4,83,30.11,10.0,Calm,Calm,-,N/A,,Clear,0,2013-09-27 15:55:00
11:15 AM,80.6,69.8,70,30.11,9.0,Calm,Calm,-,N/A,,Clear,0,2013-09-27 16:15:00
11:35 AM,82.4,66.2,58,30.11,10.0,SW,5.8,-,N/A,,Mostly Cloudy,220,2013-09-27 16:35:00
11:55 AM,82.4,64.4,54,30.11,9.0,WSW,5.8,-,N/A,,Mostly Cloudy,240,2013-09-27 16:55:00
12:15 PM,82.4,62.6,51,30.10,10.0,Variable,4.6,-,N/A,,Partly Cloudy,0,2013-09-27 17:15:00
12:35 PM,82.4,64.4,54,30.10,10.0,Variable,4.6,-,N/A,,Scattered Clouds,0,2013-09-27 17:35:00
12:55 PM,80.6,62.6,54,30.09,10.0,SW,3.5,-,N/A,,Partly Cloudy,230,2013-09-27 17:55:00
1:15 PM,80.6,60.8,51,30.08,10.0,Calm,Calm,-,N/A,,Clear,0,2013-09-27 18:15:00
1:35 PM,82.4,60.8,48,30.07,10.0,Calm,Calm,-,N/A,,Clear,0,2013-09-27 18:35:00
1:55 PM,80.6,62.6,54,30.06,10.0,East,4.6,-,N/A,,Clear,80,2013-09-27 18:55:00
2:15 PM,82.4,60.8,48,30.05,10.0,ESE,3.5,-,N/A,,Clear,120,2013-09-27 19:15:00
2:35 PM,84.2,62.6,48,30.05,10.0,Variable,5.8,-,N/A,,Clear,0,2013-09-27 19:35:00
2:55 PM,84.2,60.8,45,30.04,10.0,SSE,5.8,-,N/A,,Clear,150,2013-09-27 19:55:00
3:15 PM,84.2,60.8,45,30.04,10.0,Calm,Calm,-,N/A,,Clear,0,2013-09-27 20:15:00
3:35 PM,84.2,60.8,45,30.03,10.0,Calm,Calm,-,N/A,,Mostly Cloudy,0,2013-09-27 20:35:00
3:55 PM,84.2,60.8,45,30.03,10.0,SSW,3.5,-,N/A,,Mostly Cloudy,210,2013-09-27 20:55:00
4:15 PM,84.2,60.8,45,30.03,10.0,ENE,4.6,-,N/A,,Scattered Clouds,60,2013-09-27 21:15:00
4:35 PM,84.2,60.8,45,30.03,10.0,ENE,4.6,-,N/A,,Mostly Cloudy,70,2013-09-27 21:35:00
4:55 PM,82.4,59.0,45,30.04,10.0,ENE,4.6,-,N/A,,Scattered Clouds,60,2013-09-27 21:55:00
5:15 PM,82.4,57.2,42,30.04,10.0,Calm,Calm,-,N/A,,Partly Cloudy,0,2013-09-27 22:15:00
5:35 PM,80.6,62.6,54,30.04,10.0,Calm,Calm,-,N/A,,Mostly Cloudy,0,2013-09-27 22:35:00
5:55 PM,82.4,62.6,51,30.04,10.0,Variable,3.5,-,N/A,,Mostly Cloudy,0,2013-09-27 22:55:00
6:15 PM,80.6,62.6,54,30.04,10.0,Calm,Calm,-,N/A,,Partly Cloudy,0,2013-09-27 23:15:00
6:35 PM,75.2,66.2,73,30.04,10.0,Calm,Calm,-,N/A,,Clear,0,2013-09-27 23:35:00
6:55 PM,73.4,68.0,83,30.04,10.0,Calm,Calm,-,N/A,,Clear,0,2013-09-27 23:55:00
7:15 PM,73.4,69.8,88,30.05,10.0,Calm,Calm,-,N/A,,Mostly Cloudy,0,2013-09-28 00:15:00
7:35 PM,71.6,71.6,100,30.05,10.0,Calm,Calm,-,N/A,,Overcast,0,2013-09-28 00:35:00
7:55 PM,71.6,71.6,100,30.06,10.0,South,4.6,-,N/A,,Unknown,170,2013-09-28 00:55:00
8:15 PM,69.8,69.8,100,30.06,10.0,Calm,Calm,-,N/A,,Mostly Cloudy,0,2013-09-28 01:15:00
8:35 PM,68.0,68.0,100,30.07,10.0,South,3.5,-,N/A,,Unknown,190,2013-09-28 01:35:00
8:55 PM,66.2,66.2,100,30.08,10.0,Calm,Calm,-,N/A,,Unknown,0,2013-09-28 01:55:00
9:15 PM,66.2,66.2,100,30.08,10.0,Calm,Calm,-,N/A,,Unknown,0,2013-09-28 02:15:00
9:35 PM,66.2,66.2,100,30.08,10.0,Calm,Calm,-,N/A,,Unknown,0,2013-09-28 02:35:00
9:55 PM,-9999,-9999,N/A,30.09,10.0,Calm,Calm,-,N/A,,Unknown,0,2013-09-28 02:55:00
10:15 PM,-9999,-9999,N/A,30.09,10.0,Calm,Calm,-,N/A,,Unknown,0,2013-09-28 03:15:00
10:35 PM,-9999,-9999,N/A,30.09,10.0,Calm,Calm,-,N/A,,Unknown,0,2013-09-28 03:35:00
10:55 PM,-9999,-9999,N/A,30.09,10.0,Calm,Calm,-,N/A,,Unknown,0,2013-09-28 03:55:00
11:15 PM,-9999,-9999,N/A,30.09,10.0,Calm,Calm,-,N/A,,Mostly Cloudy,0,2013-09-28 04:15:00
11:35 PM,-9999,-9999,N/A,30.09,10.0,Calm,Calm,-,N/A,,Mostly Cloudy,0,2013-09-28 04:35:00
11:55 PM,-9999,-9999,N/A,30.09,10.0,Calm,Calm,-,N/A,,Scattered Clouds,0,2013-09-28 04:55:00